Flag for Nepal Weather past 2 weeks in Pokhara, Nepal

Now
70 °F

Fog.


Feels Like: 70 °F
Forecast: 63 / 87 °F
Wind: 2 mph from North

Location: Kathmandu Airport

Current Time: May 30, 2015 at 6:28:58 AM

Latest Report: May 30, 2015 at 5:35 AM


Visibility: 3 mi

Pressure: 29.92 "Hg

Humidity: 88%

Dew point: 66 °F

Location of PokharaLocation

Historic Weather in Pokhara — Graph

°F

Pokhara temperature yesterday

Maximum temperature yesterday: 84 °F (at 11:35 AM)
Minimum temperature yesterday: 68 °F (at 1:35 AM)
Average temperature yesterday: 76 °F

Past Weeks' High & Low Weather Summary

 TemperatureHumidityPressure
High90 °F (May 23, 2:35 PM)94% (May 17, 3:35 AM)30.07 "Hg (May 17, 3:35 AM)
Low57 °F (May 24, 5:35 AM)22% (May 23, 2:35 PM)29.74 "Hg (May 22, 2:35 PM)
Average74 °F66%29.88 "Hg
* Reported May 15 4:35 AM — May 30 4:35 AM, Pokhara, Weather by CustomWeather, © 2015

Note: Actual official high and low records may vary slightly from our data, if they occured in-between our weather recording intervals... More about our weather records

Advertising

Pokhara weather history for previous 24 hours

 ConditionsComfort  
Time TempWeatherWind HumidityBarometerVisibility
4:35 AM
Sat, May 30
70 °FPassing clouds.No wind83%29.89 "Hg4 mi
3:35 AM70 °FPassing clouds.3 mph83%29.89 "Hg4 mi
2:35 AM70 °FPassing clouds.No wind83%29.89 "Hg4 mi
1:35 AM70 °FPassing clouds.2 mph88%29.89 "Hg4 mi
12:35 AM72 °FPassing clouds.3 mph78%29.92 "Hg4 mi
11:35 PM
Fri, May 29
73 °FPassing clouds.2 mph74%29.95 "Hg4 mi
9:35 PM75 °FPassing clouds.6 mph69%29.92 "Hg4 mi
8:35 PM75 °FPassing clouds.6 mph69%29.92 "Hg4 mi
7:35 PM77 °FScattered clouds.5 mph65%29.89 "Hg4 mi
6:35 PM79 °FScattered clouds.8 mph65%29.86 "Hg4 mi
5:35 PM81 °FScattered clouds.12 mph58%29.86 "Hg4 mi
4:35 PM81 °FScattered clouds.12 mph58%29.86 "Hg4 mi
3:35 PM81 °FScattered clouds.15 mph66%29.86 "Hg4 mi
2:35 PM81 °FBroken clouds.13 mph66%29.86 "Hg4 mi
1:35 PM82 °FBroken clouds.7 mph58%29.89 "Hg4 mi
12:35 PM82 °FBroken clouds.3 mph55%29.92 "Hg4 mi
11:35 AM84 °FScattered clouds.3 mph48%29.92 "Hg4 mi
10:35 AM82 °FPassing clouds.6 mph55%29.92 "Hg4 mi
9:35 AM79 °FPassing clouds.5 mph65%29.92 "Hg4 mi
8:35 AM77 °FPassing clouds.6 mph69%29.92 "Hg4 mi
7:35 AM73 °FPassing clouds.No wind74%29.89 "Hg4 mi
6:35 AM70 °FFog.No wind83%29.86 "Hg3 mi
Weather by CustomWeather, © 2015

See weather overviewHow to use our weather pages